Weather History for Rensselaer, IN

Change the Weather History Date:

Sunday, February 16, 2014

  Actual Average (KVPZ) Record (KVPZ)
Temperature  
Mean Temperature 22 °F 28 °F  
Max Temperature 26 °F 35 °F 60 °F (2006)
Min Temperature 15 °F 20 °F -8 °F (2007)
Degree Days  
Heating Degree Days 44 37  
Month to date heating degree days 627  
Since 1 July heating degree days 4312  
Cooling Degree Days 0 0  
Month to date cooling degree days 0  
Year to date cooling degree days 0  
Moisture  
Dew Point 18 °F    
Average Humidity 86    
Maximum Humidity 100    
Minimum Humidity 69    
Precipitation  
Precipitation 0.00 in 0.06 in 0.39 in (2006)
Month to date precipitation 0.79  
Year to date precipitation 2.54  
Sea Level Pressure  
Sea Level Pressure 30.12 in    
Wind  
Wind Speed 6 mph (WNW)    
Max Wind Speed 13 mph    
Max Gust Speed 17 mph    
Visibility 8 miles    
Events Snow    
T = Trace of Precipitation, MM = Missing Value Source: NWS Daily Summary

Daily Weather History Graph

Daily Weather History Graph

Search for Another Location

Airport:

Trip Planner

Search our weather history database for the weather conditions in past years. The results will help you decide how hot, cold, wet, or windy it might be!

Date:

Astronomy

Feb. 16, 2014 Rise Set
Actual Time 6:41 AM CST 5:24 PM CST
Civil Twilight 6:13 AM CST 5:52 PM CST
Nautical Twilight 5:41 AM CST 6:24 PM CST
Astronomical Twilight 5:09 AM CST 6:56 PM CST
Moon 7:22 PM CST (2/16) 7:10 AM CST (2/16)
Length of Visible Light 11h 39m
Length of Day
10h 42m
Full, 97% of the Moon is Illuminated
Feb 16
Full
Feb 22
Last Quarter
Mar 1
New
Mar 8
First Quarter
Mar 16
Full

Hourly Weather History & Observations

Time (CST) Temp. Windchill Dew Point Humidity Pressure Visibility Wind Dir Wind Speed Gust Speed Precip Events Conditions
12:15 AM 17.6 °F 9.3 °F 17.6 °F 100% 29.96 in 7.0 mi SSE 5.8 mph - N/A   Mostly Cloudy
12:35 AM 17.6 °F 10.7 °F 17.6 °F 100% 29.96 in 7.0 mi SSE 4.6 mph - N/A   Scattered Clouds
12:55 AM 19.4 °F 11.5 °F 17.6 °F 93% 29.95 in 7.0 mi SSE 5.8 mph - N/A   Scattered Clouds
1:15 AM 19.4 °F 10.4 °F 19.4 °F 100% 29.95 in 7.0 mi SSE 6.9 mph - N/A   Mostly Cloudy
1:35 AM 19.4 °F 11.5 °F 19.4 °F 100% 29.94 in 7.0 mi SSE 5.8 mph - N/A   Overcast
1:55 AM 19.4 °F 14.3 °F 19.4 °F 100% 29.95 in 7.0 mi South 3.5 mph - N/A   Overcast
2:15 AM 19.4 °F 12.8 °F 19.4 °F 100% 29.94 in 7.0 mi South 4.6 mph - N/A   Overcast
2:35 AM 21.2 °F 16.4 °F 19.4 °F 93% 29.94 in 7.0 mi SSW 3.5 mph - N/A   Overcast
2:55 AM 21.2 °F 16.4 °F 19.4 °F 93% 29.94 in 7.0 mi SSW 3.5 mph - N/A   Overcast
3:15 AM 21.2 °F 14.9 °F 19.4 °F 93% 29.93 in 7.0 mi SSW 4.6 mph - N/A   Overcast
3:35 AM 21.2 °F 16.4 °F 19.4 °F 93% 29.93 in 7.0 mi SW 3.5 mph - N/A   Unknown
3:55 AM 21.2 °F 13.6 °F 19.4 °F 93% 29.93 in 7.0 mi WSW 5.8 mph - N/A   Overcast
4:15 AM 21.2 °F 11.7 °F 21.2 °F 100% 29.93 in 7.0 mi WSW 8.1 mph - N/A   Overcast
4:35 AM 23.0 °F 13.9 °F 21.2 °F 93% 29.94 in 7.0 mi West 8.1 mph - N/A   Overcast
4:55 AM 23.0 °F 11.7 °F 21.2 °F 93% 29.96 in 7.0 mi West 11.5 mph - N/A   Overcast
5:15 AM 23.0 °F 12.4 °F 19.4 °F 86% 29.96 in 10.0 mi West 10.4 mph - N/A   Overcast
5:35 AM 21.2 °F 8.9 °F 19.4 °F 93% 29.96 in 10.0 mi WNW 12.7 mph 16.1 mph N/A   Overcast
5:55 AM 21.2 °F 9.5 °F 19.4 °F 93% 29.98 in 10.0 mi WNW 11.5 mph 16.1 mph N/A   Overcast
6:15 AM 21.2 °F 10.9 °F 19.4 °F 93% 29.99 in 10.0 mi WNW 9.2 mph - N/A   Overcast
6:35 AM 21.2 °F 10.1 °F 17.6 °F 86% 30.00 in 7.0 mi WNW 10.4 mph - N/A   Overcast
6:55 AM 21.2 °F 10.1 °F 17.6 °F 86% 30.02 in 7.0 mi WNW 10.4 mph - N/A   Overcast
7:15 AM 21.2 °F 10.9 °F 17.6 °F 86% 30.03 in 7.0 mi WNW 9.2 mph - N/A   Overcast
7:35 AM 21.2 °F 10.1 °F 17.6 °F 86% 30.04 in 7.0 mi WNW 10.4 mph 17.3 mph N/A   Overcast
7:55 AM 21.2 °F 10.1 °F 17.6 °F 86% 30.05 in 7.0 mi NW 10.4 mph - N/A   Overcast
8:15 AM 21.2 °F 10.9 °F 17.6 °F 86% 30.07 in 7.0 mi WNW 9.2 mph - N/A   Overcast
8:35 AM 21.2 °F 10.9 °F 17.6 °F 86% 30.07 in 5.0 mi WNW 9.2 mph - N/A Snow Light Snow
8:55 AM 21.2 °F 10.9 °F 17.6 °F 86% 30.09 in 5.0 mi WNW 9.2 mph - N/A   Overcast
9:15 AM 21.2 °F 10.9 °F 17.6 °F 86% 30.10 in 7.0 mi WNW 9.2 mph - N/A   Overcast
9:35 AM 21.2 °F 10.9 °F 17.6 °F 86% 30.11 in 7.0 mi NW 9.2 mph - N/A   Overcast
9:55 AM 23.0 °F 11.1 °F 17.6 °F 80% 30.12 in 7.0 mi NW 12.7 mph - N/A   Overcast
10:15 AM 23.0 °F 13.1 °F 17.6 °F 80% 30.13 in 7.0 mi WNW 9.2 mph - N/A   Overcast
10:35 AM 23.0 °F 13.9 °F 19.4 °F 86% 30.14 in 7.0 mi NW 8.1 mph - N/A   Overcast
10:55 AM 23.0 °F 13.1 °F 17.6 °F 80% 30.14 in 7.0 mi NW 9.2 mph - N/A   Mostly Cloudy
11:15 AM 23.0 °F 13.9 °F 17.6 °F 80% 30.14 in 7.0 mi NW 8.1 mph - N/A   Clear
11:35 AM 24.8 °F 14.6 °F 17.6 °F 74% 30.15 in 7.0 mi NW 10.4 mph - N/A   Clear
11:55 AM 24.8 °F 15.3 °F 17.6 °F 74% 30.15 in 7.0 mi WNW 9.2 mph - N/A   Clear
12:15 PM 24.8 °F 16.1 °F 17.6 °F 74% 30.15 in 7.0 mi NW 8.1 mph - N/A   Clear
12:35 PM 26.6 °F 18.2 °F 17.6 °F 69% 30.14 in 7.0 mi NW 8.1 mph - N/A   Clear
12:55 PM 26.6 °F 19.1 °F 17.6 °F 69% 30.15 in 7.0 mi NW 6.9 mph - N/A   Clear
1:15 PM 26.6 °F 20.0 °F 17.6 °F 69% 30.16 in 10.0 mi WNW 5.8 mph - N/A   Scattered Clouds
1:35 PM 26.6 °F 19.1 °F 17.6 °F 69% 30.17 in 10.0 mi NW 6.9 mph - N/A   Scattered Clouds
1:55 PM 26.6 °F 21.2 °F 17.6 °F 69% 30.17 in 10.0 mi WNW 4.6 mph - N/A   Overcast
2:15 PM 26.6 °F 20.0 °F 17.6 °F 69% 30.17 in 10.0 mi NW 5.8 mph - N/A   Overcast
2:35 PM 26.6 °F 18.2 °F 17.6 °F 69% 30.18 in 10.0 mi NW 8.1 mph - N/A   Overcast
2:55 PM 26.6 °F 21.2 °F 19.4 °F 74% 30.19 in 7.0 mi North 4.6 mph - N/A   Overcast
3:15 PM 26.6 °F 19.1 °F 19.4 °F 74% 30.21 in 10.0 mi North 6.9 mph - N/A   Overcast
3:35 PM 24.8 °F 16.9 °F 17.6 °F 74% 30.21 in 10.0 mi North 6.9 mph - N/A   Mostly Cloudy
3:55 PM 23.0 °F 18.4 °F 19.4 °F 86% 30.22 in 10.0 mi NNE 3.5 mph - N/A   Mostly Cloudy
4:15 PM 23.0 °F 18.4 °F 17.6 °F 80% 30.22 in 10.0 mi NNE 3.5 mph - N/A   Mostly Cloudy
4:35 PM 23.0 °F 18.4 °F 17.6 °F 80% 30.23 in 10.0 mi NNE 3.5 mph - N/A   Mostly Cloudy
4:55 PM 24.8 °F - 17.6 °F 74% 30.24 in 10.0 mi Calm Calm - N/A   Overcast
5:15 PM 23.0 °F - 19.4 °F 86% 30.26 in 10.0 mi Calm Calm - N/A   Overcast
5:35 PM 24.8 °F - 17.6 °F 74% 30.26 in 10.0 mi Calm Calm - N/A   Overcast
5:55 PM 23.0 °F - 17.6 °F 80% 30.27 in 10.0 mi Calm Calm - N/A   Overcast
6:15 PM 23.0 °F - 17.6 °F 80% 30.26 in 10.0 mi Calm Calm - N/A   Mostly Cloudy
6:35 PM 21.2 °F - 17.6 °F 86% 30.27 in 10.0 mi Calm Calm - N/A   Clear
6:55 PM 19.4 °F - 15.8 °F 86% 30.27 in 10.0 mi Calm Calm - N/A   Mostly Cloudy
7:15 PM 19.4 °F - 17.6 °F 93% 30.26 in 7.0 mi Calm Calm - N/A   Overcast
7:35 PM 19.4 °F - 17.6 °F 93% 30.27 in 7.0 mi Calm Calm - N/A   Overcast
7:55 PM 21.2 °F - 17.6 °F 86% 30.26 in 7.0 mi Calm Calm - N/A   Overcast
8:15 PM 21.2 °F - 17.6 °F 86% 30.26 in 7.0 mi Calm Calm - N/A   Overcast
8:35 PM 19.4 °F - 17.6 °F 93% 30.27 in 7.0 mi Calm Calm - N/A   Overcast
8:55 PM 19.4 °F - 17.6 °F 93% 30.27 in 7.0 mi Calm Calm - N/A   Mostly Cloudy
9:15 PM 17.6 °F 12.3 °F 17.6 °F 100% 30.26 in 7.0 mi SE 3.5 mph - N/A   Scattered Clouds
9:35 PM 17.6 °F - 14.0 °F 86% 30.26 in 5.0 mi Calm Calm - N/A   Clear
9:55 PM 17.6 °F - 15.8 °F 93% 30.26 in 5.0 mi Calm Calm - N/A   Clear
10:15 PM 17.6 °F - 15.8 °F 93% 30.26 in 4.0 mi Calm Calm - N/A   Clear
10:35 PM 17.6 °F - 15.8 °F 93% 30.27 in 4.0 mi Calm Calm - N/A   Clear
10:55 PM 17.6 °F - 15.8 °F 93% 30.27 in 4.0 mi Calm Calm - N/A   Clear
11:15 PM 17.6 °F - 17.6 °F 100% 30.27 in 4.0 mi Calm Calm - N/A   Clear
11:35 PM 17.6 °F - 15.8 °F 93% 30.28 in 3.0 mi Calm Calm - N/A   Clear
11:55 PM 15.8 °F 10.2 °F 14.0 °F 93% 30.27 in 3.0 mi SE 3.5 mph - N/A   Clear